Simultaneous Nadir Overpasses (SNOs) Predictions

Prediction of SNOs between LANDSAT-8 and METOP-A Satellite Orbit:

Table of predicted SNOs for the next 14.0 days since TLE Epoch: 6/2/2017
Index Date (LANDSAT-8) Time (LANDSAT-8) Lat,Lon (LANDSAT-8) SZA (LANDSAT-8 ) Date (METOP-A) Time (METOP-A) Lat,Lon (METOP-A) SZA (METOP-A ) Distance(km) Time Diff (sec)
1 06/03/2017 18:50:48 81.20, -61.46 61.13 06/03/2017 18:49:45 81.20, -61.33 61.12 2.18 63
2 06/03/2017 19:40:14 -81.22, 106.47 118.83 06/03/2017 19:40:24 -81.22, 106.60 118.81 2.22 10
3 06/06/2017 14:25:05 81.19, 4.80 60.79 06/06/2017 14:24:07 81.19, 4.68 60.75 2.11 58
4 06/06/2017 15:14:31 -81.21, 172.76 119.17 06/06/2017 15:14:46 -81.21, 172.62 119.18 2.27 15
5 06/09/2017 09:59:20 81.20, 71.41 60.55 06/09/2017 09:58:26 81.20, 71.44 60.53 0.53 54
6 06/09/2017 10:48:46 -81.22,-120.61 119.41 06/09/2017 10:49:05 -81.22,-120.60 119.40 0.27 19
7 06/12/2017 05:33:36 81.21, 137.98 60.36 06/12/2017 05:32:47 81.20, 137.80 60.31 3.25 49
8 06/12/2017 06:23:02 -81.23, -54.02 119.59 06/12/2017 06:23:25 -81.23, -53.84 119.57 2.98 23
9 06/15/2017 01:07:53 81.19,-155.84 60.16 06/15/2017 01:07:08 81.20,-155.85 60.14 0.58 45




NCC Satellite Simultaneous Nadir Overpasses (SNOs) Prediction Service
